{"data":{"norad_id":58221,"intl_designator":"2023-170R","name":"STARLINK-30836","alt_names":[],"object_type":"PAYLOAD","status":"ACTIVE","operator":null,"country":"US","launch_date":"2023-11-03","launch_site_code":"AFETR","launch_vehicle":null,"mission":null,"orbit_class":"UNKNOWN","rcs_meters":null,"size_class":null,"mass_kg":null,"dimensions":null,"purposes":["comms"],"wikipedia_slug":null,"has_3d_model":false,"image_url":null,"decayed_at":null,"tle_current":{"epoch":"2026-05-25T05:25:23.291328Z","epoch_age_seconds":55291,"freshness":"FRESH","line1":"1 58221U 23170R   26145.22596402  .00002379  00000+0  95923-4 0  9991","line2":"2 58221  42.9996 122.0775 0001613 269.8249  90.2418 15.27592915142001","mean_motion":15.27592915,"eccentricity":0.0001613,"inclination_deg":42.9996,"raan_deg":122.0775,"arg_perigee_deg":269.8249,"mean_anomaly_deg":90.2418,"bstar":9.5923e-5,"rev_number":14200,"period_min":94.265951737541,"perigee_km":481.90372107645,"apogee_km":484.11712723548,"semimajor_km":6861.147424156,"source":"CELESTRAK","updated_at":"2026-05-25T13:38:18.577173Z"}}}